EZY6PU EGPH-EGKK

Flight info

Callsign EZY6PU
Flight time 1h 16m
Altitude 35000
Route GOSAM P600 FENIK L612 NAVSO DCT ADZOP DCT EGTOC DCT KEPAD L151 DISIT
Aircraft A320/M-SDE3FGHIRWY/LB1

Departure

Time 2026-05-07 19:07
Airport Edinburgh Airport (EGPH)

Arrival

Time 2026-05-07 20:23
Airport London Gatwick Airport (EGKK)
Time Latitude Longitude Altitude Speed Heading
2026-05-07 18:39 55.94953 -3.36030 105 ft 0 kts 254°
2026-05-07 18:56 55.94954 -3.36025 107 ft 2 kts 254°
2026-05-07 18:56 55.94958 -3.35996 104 ft 2 kts 254°
2026-05-07 18:57 55.94963 -3.35967 106 ft 2 kts 254°
2026-05-07 18:57 55.94966 -3.35948 105 ft 2 kts 254°
2026-05-07 18:57 55.94971 -3.35918 106 ft 2 kts 254°
2026-05-07 18:57 55.94975 -3.35889 105 ft 2 kts 284°
2026-05-07 18:58 55.94967 -3.35864 104 ft 2 kts 355°
2026-05-07 18:58 55.94961 -3.35863 104 ft 0 kts 19°
2026-05-07 19:00 55.94962 -3.35863 107 ft 0 kts 12°
2026-05-07 19:00 55.94970 -3.35860 107 ft 5 kts 12°
2026-05-07 19:00 55.95009 -3.35834 106 ft 6 kts 26°
2026-05-07 19:00 55.95047 -3.35801 106 ft 5 kts 22°
2026-05-07 19:01 55.95068 -3.35794 107 ft 4 kts
2026-05-07 19:01 55.95112 -3.35843 106 ft 9 kts 305°
2026-05-07 19:01 55.95147 -3.35926 105 ft 9 kts 318°
2026-05-07 19:01 55.95206 -3.35982 101 ft 11 kts 352°
2026-05-07 19:02 55.95261 -3.35908 101 ft 9 kts 57°
2026-05-07 19:02 55.95289 -3.35823 101 ft 7 kts 62°
2026-05-07 19:02 55.95316 -3.35742 102 ft 8 kts 58°
2026-05-07 19:02 55.95344 -3.35662 103 ft 9 kts 59°
2026-05-07 19:03 55.95377 -3.35564 105 ft 8 kts 58°
2026-05-07 19:03 55.95408 -3.35471 104 ft 10 kts 58°
2026-05-07 19:03 55.95460 -3.35408 103 ft 9 kts
2026-05-07 19:03 55.95491 -3.35430 102 ft 2 kts 328°
2026-05-07 19:04 55.95492 -3.35432 102 ft 0 kts 328°
2026-05-07 19:05 55.95509 -3.35452 101 ft 6 kts 326°
2026-05-07 19:05 55.95543 -3.35496 101 ft 5 kts 319°
2026-05-07 19:05 55.95562 -3.35550 102 ft 6 kts 290°
2026-05-07 19:06 55.95552 -3.35618 102 ft 6 kts 240°
2026-05-07 19:06 55.95408 -3.36039 100 ft 75 kts 239°
2026-05-07 19:06 55.95031 -3.37146 106 ft 131 kts 238°
2026-05-07 19:07 55.94517 -3.38648 496 ft 142 kts 237°
2026-05-07 19:07 55.94007 -3.40170 1125 ft 146 kts 236°
2026-05-07 19:07 55.93456 -3.41789 1557 ft 161 kts 235°
2026-05-07 19:07 55.92824 -3.43566 1874 ft 179 kts 234°
2026-05-07 19:08 55.92138 -3.45520 2322 ft 190 kts 235°
2026-05-07 19:08 55.91407 -3.47616 2668 ft 211 kts 234°
2026-05-07 19:08 55.90637 -3.49929 3286 ft 223 kts 243°
2026-05-07 19:08 55.90233 -3.52753 3852 ft 242 kts 257°
2026-05-07 19:09 55.89953 -3.55722 4718 ft 247 kts 257°
2026-05-07 19:09 55.89657 -3.58771 5584 ft 253 kts 257°
2026-05-07 19:09 55.89349 -3.61890 5915 ft 255 kts 258°
2026-05-07 19:09 55.89039 -3.64996 6000 ft 254 kts 257°
2026-05-07 19:10 55.88727 -3.68102 6007 ft 255 kts 258°
2026-05-07 19:10 55.88415 -3.71209 6008 ft 254 kts 257°
2026-05-07 19:10 55.88105 -3.74309 6006 ft 254 kts 257°
2026-05-07 19:10 55.87793 -3.77398 6005 ft 254 kts 257°
2026-05-07 19:11 55.87481 -3.80508 6013 ft 254 kts 257°
2026-05-07 19:11 55.87176 -3.83578 6005 ft 255 kts 257°
2026-05-07 19:11 55.86863 -3.86722 6005 ft 255 kts 257°
2026-05-07 19:11 55.86552 -3.89834 5998 ft 255 kts 257°
2026-05-07 19:12 55.86240 -3.92955 6168 ft 259 kts 257°
2026-05-07 19:12 55.85926 -3.96065 7113 ft 257 kts 257°
2026-05-07 19:12 55.85381 -3.99068 8001 ft 257 kts 238°
2026-05-07 19:12 55.84191 -4.01426 8843 ft 259 kts 215°
2026-05-07 19:13 55.82488 -4.02636 9723 ft 266 kts 190°
2026-05-07 19:13 55.80602 -4.02432 10292 ft 284 kts 173°
2026-05-07 19:13 55.78578 -4.01742 10528 ft 308 kts 172°
2026-05-07 19:13 55.76395 -4.00937 10720 ft 331 kts 171°
2026-05-07 19:14 55.74105 -4.00062 11228 ft 341 kts 171°
2026-05-07 19:14 55.71774 -3.99170 11888 ft 345 kts 171°
2026-05-07 19:14 55.69412 -3.98279 12579 ft 349 kts 171°
2026-05-07 19:14 55.67024 -3.97395 13288 ft 352 kts 171°
2026-05-07 19:15 55.64610 -3.96515 13949 ft 356 kts 171°
2026-05-07 19:15 55.62173 -3.95633 14567 ft 359 kts 172°
2026-05-07 19:15 55.59720 -3.94746 15196 ft 361 kts 172°
2026-05-07 19:15 55.57249 -3.93855 15821 ft 364 kts 172°
2026-05-07 19:16 55.54762 -3.92960 16429 ft 367 kts 172°
2026-05-07 19:16 55.52255 -3.92057 17040 ft 370 kts 172°
2026-05-07 19:16 55.49722 -3.91148 17681 ft 372 kts 172°
2026-05-07 19:16 55.47181 -3.90235 18285 ft 375 kts 172°
2026-05-07 19:17 55.44614 -3.89313 18767 ft 379 kts 172°
2026-05-07 19:17 55.42021 -3.88384 19273 ft 382 kts 172°
2026-05-07 19:17 55.39402 -3.87447 19754 ft 385 kts 171°
2026-05-07 19:17 55.36762 -3.86506 20246 ft 389 kts 171°
2026-05-07 19:18 55.34106 -3.85564 20735 ft 392 kts 171°
2026-05-07 19:18 55.31388 -3.84596 21219 ft 394 kts 171°
2026-05-07 19:18 55.28686 -3.83634 21685 ft 397 kts 171°
2026-05-07 19:18 55.25973 -3.82670 22142 ft 400 kts 171°
2026-05-07 19:19 55.23234 -3.81695 22588 ft 403 kts 171°
2026-05-07 19:19 55.20519 -3.80396 23006 ft 407 kts 165°
2026-05-07 19:19 55.17798 -3.78897 23397 ft 411 kts 165°
2026-05-07 19:19 55.15058 -3.77387 23752 ft 414 kts 165°
2026-05-07 19:20 55.12305 -3.75873 24103 ft 416 kts 165°
2026-05-07 19:20 55.09539 -3.74357 24466 ft 417 kts 165°
2026-05-07 19:20 55.06765 -3.72842 24828 ft 418 kts 165°
2026-05-07 19:20 55.03983 -3.71328 25191 ft 420 kts 165°
2026-05-07 19:21 55.01187 -3.69806 25538 ft 421 kts 165°
2026-05-07 19:21 54.98385 -3.68283 25878 ft 422 kts 165°
2026-05-07 19:21 54.95576 -3.66755 26216 ft 424 kts 165°
2026-05-07 19:21 54.92784 -3.65235 26495 ft 426 kts 165°
2026-05-07 19:22 54.89911 -3.63673 26784 ft 428 kts 165°
2026-05-07 19:22 54.87095 -3.62147 27078 ft 430 kts 165°
2026-05-07 19:22 54.84223 -3.60595 27369 ft 431 kts 165°
2026-05-07 19:22 54.81346 -3.59046 27659 ft 432 kts 165°
2026-05-07 19:23 54.78465 -3.57495 27940 ft 433 kts 165°
2026-05-07 19:23 54.75567 -3.55936 28205 ft 435 kts 165°
2026-05-07 19:23 54.72677 -3.54385 28466 ft 436 kts 165°
2026-05-07 19:23 54.69804 -3.52843 28760 ft 435 kts 165°
2026-05-07 19:24 54.66911 -3.51291 29067 ft 435 kts 165°
2026-05-07 19:24 54.64016 -3.49739 29390 ft 435 kts 165°
2026-05-07 19:24 54.61126 -3.48194 29755 ft 434 kts 165°
2026-05-07 19:24 54.58241 -3.46652 30113 ft 432 kts 165°
2026-05-07 19:25 54.55367 -3.45120 30413 ft 431 kts 165°
2026-05-07 19:25 54.52502 -3.43601 30707 ft 430 kts 165°
2026-05-07 19:25 54.49647 -3.42090 31017 ft 429 kts 165°
2026-05-07 19:25 54.46780 -3.40578 31312 ft 428 kts 165°
2026-05-07 19:26 54.43934 -3.39079 31585 ft 428 kts 165°
2026-05-07 19:26 54.41077 -3.37574 31803 ft 430 kts 165°
2026-05-07 19:26 54.38217 -3.36069 32077 ft 430 kts 165°
2026-05-07 19:26 54.35353 -3.34560 32352 ft 429 kts 165°
2026-05-07 19:27 54.32498 -3.33056 32641 ft 429 kts 165°
2026-05-07 19:27 54.29647 -3.31555 32948 ft 428 kts 165°
2026-05-07 19:27 54.26796 -3.30053 33241 ft 427 kts 165°
2026-05-07 19:27 54.23956 -3.28559 33539 ft 427 kts 165°
2026-05-07 19:28 54.21113 -3.27068 33830 ft 426 kts 165°
2026-05-07 19:28 54.19231 -3.26119 33995 ft 425 kts 168°
2026-05-07 19:28 54.16316 -3.25247 34142 ft 425 kts 176°
2026-05-07 19:28 54.13359 -3.24803 34318 ft 426 kts 176°
2026-05-07 19:29 54.10403 -3.24354 34521 ft 427 kts 176°
2026-05-07 19:29 54.07435 -3.23893 34718 ft 428 kts 176°
2026-05-07 19:29 54.04466 -3.23424 34912 ft 428 kts 176°
2026-05-07 19:29 54.01490 -3.22896 34995 ft 431 kts 173°
2026-05-07 19:30 53.95741 -3.19952 35004 ft 437 kts 161°
2026-05-07 19:30 53.90024 -3.16243 35005 ft 439 kts 162°
2026-05-07 19:31 53.84294 -3.12577 35001 ft 439 kts 161°
2026-05-07 19:31 53.78571 -3.08912 35003 ft 439 kts 161°
2026-05-07 19:32 53.72843 -3.05246 35005 ft 439 kts 161°
2026-05-07 19:32 53.67120 -3.01600 35001 ft 440 kts 162°
2026-05-07 19:33 53.61410 -2.97965 34999 ft 441 kts 162°
2026-05-07 19:33 53.55662 -2.94323 35002 ft 441 kts 162°
2026-05-07 19:34 53.49898 -2.90679 35002 ft 442 kts 162°
2026-05-07 19:34 53.44144 -2.87035 35011 ft 442 kts 162°
2026-05-07 19:35 53.38384 -2.83409 35017 ft 442 kts 162°
2026-05-07 19:35 53.32618 -2.79802 35017 ft 442 kts 162°
2026-05-07 19:36 53.26882 -2.76222 35014 ft 442 kts 162°
2026-05-07 19:36 53.21114 -2.72627 35007 ft 442 kts 162°
2026-05-07 19:37 53.15330 -2.69027 35009 ft 443 kts 162°
2026-05-07 19:37 53.09546 -2.65434 35017 ft 443 kts 162°
2026-05-07 19:38 53.03752 -2.61858 35016 ft 443 kts 162°
2026-05-07 19:38 52.98004 -2.58331 35016 ft 443 kts 162°
2026-05-07 19:39 52.92208 -2.54775 35014 ft 444 kts 162°
2026-05-07 19:39 52.86406 -2.51210 35011 ft 444 kts 162°
2026-05-07 19:40 52.80650 -2.47352 35016 ft 448 kts 154°
2026-05-07 19:40 52.75405 -2.41727 35020 ft 450 kts 149°
2026-05-07 19:41 52.70193 -2.35970 35016 ft 450 kts 149°
2026-05-07 19:41 52.65001 -2.30273 35027 ft 451 kts 149°
2026-05-07 19:42 52.59765 -2.24540 35029 ft 451 kts 149°
2026-05-07 19:42 52.54525 -2.18804 35011 ft 452 kts 149°
2026-05-07 19:43 52.51926 -2.15967 34305 ft 455 kts 149°
2026-05-07 19:43 52.49259 -2.13070 33179 ft 460 kts 149°
2026-05-07 19:43 52.46586 -2.10169 32223 ft 460 kts 149°
2026-05-07 19:43 52.43914 -2.07272 31241 ft 461 kts 149°
2026-05-07 19:44 52.41235 -2.04370 30167 ft 463 kts 149°
2026-05-07 19:44 52.38533 -2.01443 28912 ft 466 kts 149°
2026-05-07 19:44 52.35824 -1.98503 27800 ft 465 kts 149°
2026-05-07 19:44 52.33123 -1.95578 26530 ft 468 kts 149°
2026-05-07 19:45 52.30414 -1.92657 25827 ft 460 kts 149°
2026-05-07 19:45 52.27746 -1.89792 25024 ft 455 kts 149°
2026-05-07 19:45 52.25140 -1.87002 24245 ft 450 kts 149°
2026-05-07 19:45 52.22532 -1.84209 23449 ft 447 kts 149°
2026-05-07 19:46 52.19945 -1.81433 22658 ft 442 kts 149°
2026-05-07 19:46 52.17391 -1.78693 21967 ft 436 kts 149°
2026-05-07 19:46 52.14869 -1.75994 21271 ft 431 kts 149°
2026-05-07 19:46 52.12369 -1.73329 20588 ft 426 kts 149°
2026-05-07 19:47 52.09894 -1.70698 20174 ft 421 kts 149°
2026-05-07 19:47 52.07465 -1.68116 20028 ft 409 kts 149°
2026-05-07 19:47 52.05134 -1.65633 19938 ft 393 kts 149°
2026-05-07 19:47 52.02908 -1.63265 19770 ft 378 kts 149°
2026-05-07 19:48 52.00784 -1.61009 19653 ft 353 kts 149°
2026-05-07 19:48 51.98789 -1.58893 19396 ft 334 kts 149°
2026-05-07 19:48 51.96866 -1.56857 18858 ft 326 kts 149°
2026-05-07 19:48 51.94975 -1.54862 18234 ft 322 kts 149°
2026-05-07 19:49 51.93104 -1.52895 17533 ft 318 kts 149°
2026-05-07 19:49 51.91251 -1.50944 17151 ft 318 kts 149°
2026-05-07 19:49 51.89393 -1.48990 16862 ft 316 kts 149°
2026-05-07 19:49 51.87550 -1.47056 16582 ft 315 kts 149°
2026-05-07 19:50 51.85708 -1.45124 16303 ft 314 kts 149°
2026-05-07 19:50 51.83882 -1.43207 16036 ft 312 kts 149°
2026-05-07 19:50 51.82065 -1.41303 15764 ft 311 kts 149°
2026-05-07 19:50 51.80253 -1.39403 15492 ft 310 kts 149°
2026-05-07 19:51 51.78446 -1.37510 15222 ft 308 kts 149°
2026-05-07 19:51 51.76646 -1.35626 15040 ft 307 kts 149°
2026-05-07 19:51 51.74878 -1.33774 15025 ft 307 kts 149°
2026-05-07 19:51 51.73060 -1.31873 15030 ft 307 kts 149°
2026-05-07 19:52 51.71291 -1.30027 15030 ft 307 kts 149°
2026-05-07 19:52 51.69498 -1.28160 15054 ft 307 kts 149°
2026-05-07 19:52 51.67701 -1.26290 15055 ft 307 kts 149°
2026-05-07 19:52 51.65902 -1.24416 15056 ft 307 kts 149°
2026-05-07 19:53 51.64110 -1.22547 15057 ft 307 kts 149°
2026-05-07 19:53 51.62317 -1.20684 15057 ft 307 kts 149°
2026-05-07 19:53 51.60516 -1.18819 15057 ft 307 kts 149°
2026-05-07 19:53 51.58716 -1.16959 15057 ft 307 kts 149°
2026-05-07 19:54 51.56920 -1.15106 15059 ft 307 kts 149°
2026-05-07 19:54 51.55123 -1.13244 15056 ft 307 kts 149°
2026-05-07 19:54 51.53320 -1.11375 15057 ft 307 kts 149°
2026-05-07 19:54 51.51523 -1.09516 15057 ft 307 kts 149°
2026-05-07 19:55 51.49749 -1.07685 15055 ft 307 kts 149°
2026-05-07 19:55 51.47947 -1.05831 15057 ft 307 kts 149°
2026-05-07 19:55 51.46149 -1.03981 15056 ft 307 kts 149°
2026-05-07 19:55 51.44345 -1.02123 15057 ft 307 kts 149°
2026-05-07 19:56 51.42542 -1.00274 15059 ft 307 kts 149°
2026-05-07 19:56 51.40742 -0.98432 15059 ft 307 kts 149°
2026-05-07 19:56 51.38943 -0.96589 15060 ft 307 kts 149°
2026-05-07 19:56 51.37140 -0.94743 15055 ft 307 kts 149°
2026-05-07 19:57 51.35335 -0.92896 15067 ft 307 kts 149°
2026-05-07 19:57 51.33562 -0.91081 15071 ft 307 kts 149°
2026-05-07 19:57 51.31759 -0.89238 15081 ft 307 kts 149°
2026-05-07 19:57 51.29952 -0.87394 15085 ft 308 kts 149°
2026-05-07 19:58 51.28149 -0.85556 15084 ft 308 kts 149°
2026-05-07 19:58 51.26340 -0.83712 15083 ft 308 kts 149°
2026-05-07 19:58 51.24529 -0.81864 15084 ft 308 kts 149°
2026-05-07 19:58 51.22723 -0.80025 15083 ft 308 kts 149°
2026-05-07 19:59 51.20920 -0.78192 15083 ft 308 kts 149°
2026-05-07 19:59 51.19107 -0.76349 15083 ft 308 kts 149°
2026-05-07 19:59 51.17281 -0.74495 14574 ft 316 kts 149°
2026-05-07 19:59 51.15428 -0.72621 14316 ft 311 kts 149°
2026-05-07 20:00 51.14228 -0.71407 14188 ft 305 kts 149°
2026-05-07 20:00 51.12450 -0.69608 13944 ft 301 kts 149°
2026-05-07 20:00 51.10680 -0.67823 13606 ft 300 kts 150°
2026-05-07 20:00 51.08350 -0.65475 13088 ft 298 kts 150°
2026-05-07 20:01 51.06614 -0.63684 12725 ft 298 kts 144°
2026-05-07 20:01 51.05578 -0.62185 12479 ft 299 kts 133°
2026-05-07 20:01 51.04424 -0.59433 12095 ft 301 kts 118°
2026-05-07 20:01 51.03506 -0.56480 11718 ft 301 kts 118°
2026-05-07 20:02 51.02575 -0.53500 11334 ft 300 kts 118°
2026-05-07 20:02 51.01648 -0.50534 10939 ft 299 kts 118°
2026-05-07 20:02 51.00720 -0.47573 10582 ft 298 kts 118°
2026-05-07 20:02 50.99795 -0.44631 10219 ft 298 kts 118°
2026-05-07 20:03 50.98870 -0.41688 9848 ft 297 kts 118°
2026-05-07 20:03 50.97951 -0.38764 9462 ft 295 kts 118°
2026-05-07 20:03 50.97038 -0.35865 9109 ft 292 kts 118°
2026-05-07 20:03 50.96128 -0.32983 9054 ft 291 kts 118°
2026-05-07 20:04 50.95219 -0.30110 9058 ft 292 kts 118°
2026-05-07 20:04 50.94306 -0.27223 9058 ft 292 kts 118°
2026-05-07 20:04 50.93391 -0.24341 9058 ft 292 kts 118°
2026-05-07 20:04 50.92474 -0.21460 9056 ft 292 kts 118°
2026-05-07 20:05 50.91559 -0.18583 9055 ft 292 kts 118°
2026-05-07 20:05 50.90643 -0.15707 9062 ft 292 kts 118°
2026-05-07 20:05 50.89725 -0.12830 9058 ft 292 kts 118°
2026-05-07 20:05 50.88823 -0.09990 9058 ft 292 kts 116°
2026-05-07 20:06 50.88348 -0.06881 9067 ft 293 kts 86°
2026-05-07 20:06 50.88979 -0.03827 9061 ft 291 kts 53°
2026-05-07 20:06 50.90492 -0.01852 9058 ft 287 kts 19°
2026-05-07 20:06 50.92424 -0.01486 9070 ft 281 kts 346°
2026-05-07 20:07 50.94129 -0.02851 9067 ft 275 kts 312°
2026-05-07 20:07 50.95095 -0.05415 9066 ft 273 kts 290°
2026-05-07 20:07 50.95766 -0.08244 9058 ft 274 kts 289°
2026-05-07 20:07 50.96428 -0.11076 9058 ft 274 kts 289°
2026-05-07 20:08 50.97121 -0.13897 9059 ft 274 kts 291°
2026-05-07 20:08 50.97849 -0.16698 9064 ft 274 kts 291°
2026-05-07 20:08 50.98602 -0.19491 9078 ft 274 kts 292°
2026-05-07 20:08 50.99363 -0.22270 9087 ft 274 kts 292°
2026-05-07 20:09 50.99854 -0.25173 9074 ft 273 kts 272°
2026-05-07 20:09 50.99595 -0.28133 9060 ft 272 kts 249°
2026-05-07 20:09 50.98602 -0.30686 9061 ft 274 kts 226°
2026-05-07 20:10 50.95157 -0.32985 9066 ft 280 kts 186°
2026-05-07 20:10 50.93202 -0.33130 9060 ft 281 kts 184°
2026-05-07 20:10 50.91245 -0.33195 9050 ft 282 kts 182°
2026-05-07 20:10 50.89318 -0.32638 9048 ft 285 kts 157°
2026-05-07 20:11 50.87706 -0.30734 9049 ft 290 kts 130°
2026-05-07 20:11 50.86808 -0.27940 9058 ft 293 kts 103°
2026-05-07 20:11 50.86791 -0.24735 9057 ft 293 kts 75°
2026-05-07 20:11 50.87688 -0.21868 9053 ft 292 kts 47°
2026-05-07 20:12 50.89289 -0.19980 9058 ft 287 kts 20°
2026-05-07 20:12 50.91231 -0.19385 9064 ft 284 kts
2026-05-07 20:12 50.93201 -0.19471 9054 ft 282 kts 345°
2026-05-07 20:12 50.94944 -0.20719 8758 ft 274 kts 319°
2026-05-07 20:13 50.96105 -0.23051 8326 ft 269 kts 291°
2026-05-07 20:13 50.96612 -0.25834 8164 ft 255 kts 282°
2026-05-07 20:13 50.96982 -0.28514 7970 ft 242 kts 281°
2026-05-07 20:13 50.97325 -0.31104 7569 ft 238 kts 281°
2026-05-07 20:14 50.97655 -0.33655 7195 ft 238 kts 281°
2026-05-07 20:14 50.97988 -0.36263 6882 ft 237 kts 281°
2026-05-07 20:14 50.98307 -0.38798 6536 ft 237 kts 281°
2026-05-07 20:14 50.98627 -0.41380 6173 ft 238 kts 281°
2026-05-07 20:15 50.98945 -0.43961 5802 ft 239 kts 281°
2026-05-07 20:15 50.99263 -0.46556 5448 ft 239 kts 281°
2026-05-07 20:15 50.99584 -0.49147 5117 ft 239 kts 281°
2026-05-07 20:15 51.00018 -0.51686 4794 ft 237 kts 299°
2026-05-07 20:16 51.01096 -0.53506 4658 ft 220 kts 332°
2026-05-07 20:16 51.02443 -0.54498 4529 ft 206 kts 340°
2026-05-07 20:16 51.03744 -0.55292 4411 ft 194 kts 341°
2026-05-07 20:16 51.04999 -0.56042 4054 ft 192 kts 341°
2026-05-07 20:17 51.06264 -0.56728 3676 ft 191 kts 349°
2026-05-07 20:17 51.07562 -0.56847 3301 ft 187 kts
2026-05-07 20:17 51.08837 -0.56597 2994 ft 183 kts 26°
2026-05-07 20:17 51.09720 -0.55232 3003 ft 180 kts 69°
2026-05-07 20:18 51.10009 -0.53309 3013 ft 180 kts 79°
2026-05-07 20:18 51.10289 -0.51365 3008 ft 180 kts 78°
2026-05-07 20:18 51.10567 -0.49425 3001 ft 180 kts 78°
2026-05-07 20:18 51.10842 -0.47484 3003 ft 180 kts 78°
2026-05-07 20:19 51.11115 -0.45545 3005 ft 180 kts 78°
2026-05-07 20:19 51.11389 -0.43602 3002 ft 180 kts 78°
2026-05-07 20:19 51.11662 -0.41656 2866 ft 180 kts 78°
2026-05-07 20:19 51.11925 -0.39783 2659 ft 169 kts 79°
2026-05-07 20:20 51.12175 -0.38003 2474 ft 162 kts 79°
2026-05-07 20:20 51.12417 -0.36275 2239 ft 159 kts 79°
2026-05-07 20:20 51.12657 -0.34560 2026 ft 158 kts 79°
2026-05-07 20:20 51.12898 -0.32829 1808 ft 158 kts 79°
2026-05-07 20:21 51.13134 -0.31136 1592 ft 158 kts 79°
2026-05-07 20:21 51.13371 -0.29432 1371 ft 154 kts 79°
2026-05-07 20:21 51.13594 -0.27834 1152 ft 143 kts 79°
2026-05-07 20:21 51.13805 -0.26317 961 ft 138 kts 78°
2026-05-07 20:22 51.14011 -0.24833 774 ft 136 kts 78°
2026-05-07 20:22 51.14213 -0.23372 594 ft 135 kts 77°
2026-05-07 20:22 51.14415 -0.21915 400 ft 134 kts 78°
2026-05-07 20:22 51.14613 -0.20471 238 ft 133 kts 77°
2026-05-07 20:23 51.14791 -0.19162 209 ft 99 kts 77°
2026-05-07 20:23 51.14889 -0.18468 208 ft 40 kts 77°
2026-05-07 20:23 51.14948 -0.18070 207 ft 32 kts 73°
2026-05-07 20:23 51.15043 -0.17822 209 ft 20 kts 51°
2026-05-07 20:24 51.15088 -0.17759 210 ft 4 kts 18°
2026-05-07 20:24 51.15146 -0.17764 208 ft 10 kts 352°
2026-05-07 20:24 51.15210 -0.17776 208 ft 4 kts 355°
2026-05-07 20:24 51.15222 -0.17778 207 ft 1 kts 357°
2026-05-07 20:25 51.15234 -0.17775 210 ft 2 kts
2026-05-07 20:25 51.15242 -0.17772 212 ft 0 kts 14°
2026-05-07 20:25 51.15243 -0.17772 213 ft 0 kts 15°
2026-05-07 20:25 51.15260 -0.17735 215 ft 0 kts 66°
2026-05-07 20:26 51.15264 -0.17713 207 ft 7 kts 72°
2026-05-07 20:26 51.15277 -0.17627 211 ft 8 kts 77°
2026-05-07 20:26 51.15290 -0.17540 214 ft 8 kts 77°
2026-05-07 20:26 51.15299 -0.17455 210 ft 7 kts 81°
2026-05-07 20:27 51.15319 -0.17389 217 ft 6 kts 42°
2026-05-07 20:27 51.15356 -0.17374 207 ft 5 kts
2026-05-07 20:27 51.15400 -0.17382 215 ft 11 kts 348°
2026-05-07 20:27 51.15478 -0.17414 205 ft 11 kts 347°
2026-05-07 20:28 51.15546 -0.17439 207 ft 9 kts 347°
2026-05-07 20:28 51.15606 -0.17460 210 ft 8 kts 348°
2026-05-07 20:28 51.15659 -0.17477 209 ft 7 kts 348°
2026-05-07 20:28 51.15707 -0.17494 205 ft 10 kts 348°
2026-05-07 20:29 51.15752 -0.17558 207 ft 8 kts 281°
2026-05-07 20:29 51.15744 -0.17638 213 ft 7 kts 253°